When you browse on this site, cookies collect data to enhance your experience and personalize the content and advertising you see.
Visit our Privacy Policy to learn more. By continuing to use the site, you agree to this use of cookies and data.
EN

Hourly Weather Achi

Today, 12 August, Wednesday

Time Temperature Precipitation Wind Pressure Humidity
00:00 +13°C° 0 mm 1 mps 751 mmHg 87%
01:00 +13°C° 0 mm 1 mps 751 mmHg 88%
02:00 +12°C° 0 mm 1 mps 751 mmHg 88%
03:00 +12°C° 0 mm 1 mps 751 mmHg 89%
04:00 +13°C° 0 mm 1 mps 751 mmHg 87%
05:00 +14°C° 0 mm 1 mps 751 mmHg 85%
06:00 +14°C° 0 mm 1 mps 751 mmHg 83%
07:00 +16°C° 0 mm 1 mps 751 mmHg 78%
08:00 +18°C° 0 mm 1 mps 751 mmHg 74%
09:00 +20°C° 0 mm 1 mps 751 mmHg 69%
10:00 +19°C° 0.1 mm 2 mps 751 mmHg 66%
11:00 +20°C° 0.1 mm 2 mps 751 mmHg 62%
12:00 +21°C° 0.1 mm 2 mps 751 mmHg 58%
13:00 +21°C° 0.1 mm 2 mps 751 mmHg 58%
14:00 +23°C° 0.1 mm 2 mps 751 mmHg 57%
15:00 +23°C° 0.1 mm 1 mps 751 mmHg 56%
16:00 +21°C° 0 mm 2 mps 751 mmHg 61%
17:00 +20°C° 0 mm 2 mps 751 mmHg 66%
18:00 +19°C° 0 mm 2 mps 751 mmHg 71%
19:00 +18°C° 0 mm 2 mps 751 mmHg 74%
20:00 +17°C° 0 mm 2 mps 751 mmHg 77%
21:00 +14°C° 0 mm 3 mps 751 mmHg 80%
22:00 +14°C° 0 mm 3 mps 751 mmHg 81%
23:00 +14°C° 0 mm 2 mps 751 mmHg 81%

Tomorrow, 13 August, Thursday

Time Temperature Precipitation Wind Pressure Humidity
00:00 +14°C° 0 mm 2 mps 751 mmHg 82%
01:00 +13°C° 0 mm 2 mps 751 mmHg 81%
02:00 +13°C° 0 mm 2 mps 751 mmHg 81%
03:00 +12°C° 0 mm 3 mps 751 mmHg 81%
04:00 +12°C° 0 mm 3 mps 751 mmHg 80%
05:00 +13°C° 0 mm 3 mps 751 mmHg 79%
06:00 +13°C° 0 mm 3 mps 751 mmHg 78%
07:00 +14°C° 0.1 mm 4 mps 751 mmHg 79%
08:00 +14°C° 0.1 mm 4 mps 750 mmHg 80%
09:00 +14°C° 0.1 mm 4 mps 750 mmHg 80%
10:00 +14°C° 0.3 mm 4 mps 750 mmHg 83%
11:00 +14°C° 0.3 mm 3 mps 750 mmHg 85%
12:00 +14°C° 0.3 mm 3 mps 750 mmHg 87%
13:00 +15°C° 0.1 mm 4 mps 749 mmHg 85%
14:00 +15°C° 0.1 mm 4 mps 749 mmHg 84%
15:00 +15°C° 0.1 mm 4 mps 749 mmHg 82%
16:00 +17°C° 0 mm 4 mps 748 mmHg 81%
17:00 +17°C° 0 mm 4 mps 748 mmHg 81%
18:00 +17°C° 0 mm 4 mps 748 mmHg 81%
19:00 +17°C° 0 mm 4 mps 748 mmHg 80%
20:00 +15°C° 0 mm 5 mps 748 mmHg 78%
21:00 +15°C° 0 mm 5 mps 747 mmHg 77%
22:00 +15°C° 0.1 mm 5 mps 747 mmHg 77%
23:00 +15°C° 0.1 mm 5 mps 747 mmHg 77%

Day after tomorrow, 14 August, Friday

Time Temperature Precipitation Wind Pressure Humidity
00:00 +14°C° 0.1 mm 5 mps 747 mmHg 77%
01:00 +14°C° 0.2 mm 5 mps 747 mmHg 79%
02:00 +14°C° 0.2 mm 5 mps 746 mmHg 81%
03:00 +13°C° 0.2 mm 5 mps 746 mmHg 83%
04:00 +13°C° 0.1 mm 5 mps 746 mmHg 85%
05:00 +13°C° 0.1 mm 5 mps 746 mmHg 86%
06:00 +13°C° 0.1 mm 5 mps 746 mmHg 87%
07:00 +13°C° 0.2 mm 5 mps 746 mmHg 87%
08:00 +14°C° 0.2 mm 5 mps 746 mmHg 87%
09:00 +14°C° 0.2 mm 4 mps 745 mmHg 86%
10:00 +15°C° 0.2 mm 4 mps 745 mmHg 85%
11:00 +17°C° 0.2 mm 4 mps 745 mmHg 84%
12:00 +18°C° 0.2 mm 4 mps 745 mmHg 83%
13:00 +18°C° 0.7 mm 4 mps 745 mmHg 82%
14:00 +19°C° 0.7 mm 4 mps 745 mmHg 80%
15:00 +20°C° 0.7 mm 3 mps 745 mmHg 79%
16:00 +19°C° 0.8 mm 3 mps 745 mmHg 81%
17:00 +18°C° 0.8 mm 3 mps 745 mmHg 84%
18:00 +18°C° 0.8 mm 2 mps 745 mmHg 86%
19:00 +17°C° 0.2 mm 2 mps 745 mmHg 88%
20:00 +16°C° 0.2 mm 2 mps 745 mmHg 89%
21:00 +15°C° 0.2 mm 1 mps 745 mmHg 91%
22:00 +15°C° 0.2 mm 2 mps 745 mmHg 93%
23:00 +14°C° 0.2 mm 2 mps 745 mmHg 94%

15 August, Saturday

Time Temperature Precipitation Wind Pressure Humidity
00:00 +14°C° 0.2 mm 2 mps 745 mmHg 95%
01:00 +14°C° 0.3 mm 2 mps 745 mmHg 96%
02:00 +14°C° 0.3 mm 2 mps 745 mmHg 96%
03:00 +14°C° 0.3 mm 2 mps 745 mmHg 97%
04:00 +13°C° 0.4 mm 3 mps 745 mmHg 97%
05:00 +14°C° 0.4 mm 3 mps 745 mmHg 97%
06:00 +14°C° 0.4 mm 3 mps 745 mmHg 96%
07:00 +14°C° 0.5 mm 3 mps 745 mmHg 96%
08:00 +14°C° 0.5 mm 3 mps 745 mmHg 95%
09:00 +14°C° 0.5 mm 3 mps 745 mmHg 94%
10:00 +14°C° 0.1 mm 3 mps 745 mmHg 93%
11:00 +14°C° 0.1 mm 3 mps 745 mmHg 92%
12:00 +14°C° 0.1 mm 3 mps 746 mmHg 91%
13:00 +14°C° 0.2 mm 3 mps 745 mmHg 91%
14:00 +14°C° 0.2 mm 3 mps 745 mmHg 92%
15:00 +14°C° 0.2 mm 4 mps 745 mmHg 92%
16:00 +14°C° 0.1 mm 4 mps 746 mmHg 93%
17:00 +14°C° 0.1 mm 4 mps 746 mmHg 93%
18:00 +13°C° 0.1 mm 4 mps 746 mmHg 93%
19:00 +13°C° 0 mm 4 mps 746 mmHg 94%
20:00 +13°C° 0 mm 4 mps 746 mmHg 95%
21:00 +12°C° 0 mm 3 mps 746 mmHg 95%
22:00 +13°C° 0 mm 3 mps 746 mmHg 95%
23:00 +13°C° 0 mm 4 mps 746 mmHg 95%

16 August, Sunday

Time Temperature Precipitation Wind Pressure Humidity
00:00 +13°C° 0 mm 4 mps 746 mmHg 95%
01:00 +13°C° 0 mm 4 mps 746 mmHg 95%
02:00 +13°C° 0 mm 4 mps 746 mmHg 95%
03:00 +13°C° 0 mm 4 mps 746 mmHg 94%
04:00 +13°C° 0 mm 4 mps 746 mmHg 94%
05:00 +13°C° 0 mm 5 mps 746 mmHg 93%
06:00 +13°C° 0 mm 5 mps 746 mmHg 92%
07:00 +13°C° 0 mm 5 mps 747 mmHg 91%
08:00 +13°C° 0 mm 5 mps 747 mmHg 89%
09:00 +14°C° 0 mm 5 mps 747 mmHg 87%
10:00 +14°C° 0 mm 5 mps 747 mmHg 85%
11:00 +15°C° 0 mm 5 mps 748 mmHg 84%
12:00 +15°C° 0 mm 5 mps 748 mmHg 82%
13:00 +15°C° 0 mm 5 mps 748 mmHg 81%
14:00 +15°C° 0 mm 5 mps 748 mmHg 80%
15:00 +15°C° 0 mm 4 mps 748 mmHg 79%
16:00 +15°C° 0 mm 4 mps 748 mmHg 80%
17:00 +15°C° 0 mm 4 mps 748 mmHg 82%
18:00 +14°C° 0 mm 3 mps 749 mmHg 83%
19:00 +13°C° 0 mm 3 mps 749 mmHg 86%
20:00 +12°C° 0 mm 3 mps 749 mmHg 89%
21:00 +12°C° 0 mm 2 mps 749 mmHg 92%
22:00 +12°C° 0 mm 3 mps 749 mmHg 91%
23:00 +12°C° 0 mm 3 mps 749 mmHg 91%

17 August, Monday

Time Temperature Precipitation Wind Pressure Humidity
00:00 +12°C° 0 mm 3 mps 749 mmHg 90%
01:00 +12°C° 0 mm 2 mps 749 mmHg 92%
02:00 +10°C° 0 mm 2 mps 749 mmHg 94%
03:00 +10°C° 0 mm 2 mps 749 mmHg 95%
04:00 +10°C° 0 mm 2 mps 749 mmHg 94%
05:00 +12°C° 0 mm 2 mps 750 mmHg 92%
06:00 +12°C° 0 mm 2 mps 750 mmHg 91%
07:00 +13°C° 0 mm 2 mps 750 mmHg 85%
08:00 +15°C° 0 mm 2 mps 750 mmHg 80%
09:00 +16°C° 0 mm 2 mps 750 mmHg 74%
10:00 +17°C° 0 mm 2 mps 750 mmHg 70%
11:00 +18°C° 0 mm 2 mps 750 mmHg 67%
12:00 +19°C° 0 mm 2 mps 750 mmHg 63%
13:00 +19°C° 0.1 mm 2 mps 750 mmHg 63%
14:00 +20°C° 0.1 mm 2 mps 749 mmHg 62%
15:00 +20°C° 0.1 mm 3 mps 749 mmHg 62%
16:00 +19°C° 0.1 mm 3 mps 749 mmHg 66%
17:00 +18°C° 0.1 mm 3 mps 749 mmHg 71%
18:00 +17°C° 0.1 mm 2 mps 749 mmHg 75%
19:00 +16°C° 0.1 mm 2 mps 749 mmHg 78%
20:00 +15°C° 0.1 mm 2 mps 749 mmHg 80%
21:00 +14°C° 0.1 mm 1 mps 749 mmHg 83%
22:00 +14°C° 0.2 mm 1 mps 749 mmHg 86%
23:00 +13°C° 0.2 mm 2 mps 749 mmHg 90%
Show more